This is the latest recevied weather packets stored in our database for station/object DL7HMX-13. If no packets are shown the sender has not sent any weather packets the latest 10 day(s).
| Time | Temp. | Humidity | Pressure | Rain* | Wind** | Luminosity | Snow |
|---|---|---|---|---|---|---|---|
| 1777393817 | 18.89° C | 32% | 1017 hPa | 0 mm | - | 116 W/m² | - |
| 1777393219 | 19.44° C | 32% | 1016.9 hPa | 0 mm | - | 118 W/m² | - |
| 1777392622 | 19.44° C | 32% | 1016.8 hPa | 0 mm | - | 165 W/m² | - |
| 1777392024 | 20° C | 32% | 1016.8 hPa | 0 mm | - | 163 W/m² | - |
| 1777391427 | 20° C | 32% | 1016.7 hPa | 0 mm | - | 204 W/m² | - |
| 1777390830 | 20° C | 32% | 1016.7 hPa | 0 mm | - | 226 W/m² | - |
| 1777390216 | 20° C | 30% | 1016.9 hPa | 0 mm | - | 247 W/m² | - |
| 1777389621 | 20° C | 31% | 1016.8 hPa | 0 mm | - | 282 W/m² | - |
| 1777389023 | 20° C | 31% | 1016.8 hPa | 0 mm | - | 276 W/m² | - |
| 1777388425 | 20° C | 30% | 1016.8 hPa | 0 mm | - | 269 W/m² | - |
| 1777387827 | 20.56° C | 29% | 1016.9 hPa | 0 mm | - | 373 W/m² | - |
| 1777387230 | 20° C | 29% | 1016.9 hPa | 0 mm | - | 420 W/m² | - |
| 1777386618 | 20° C | 30% | 1017 hPa | 0 mm | - | 438 W/m² | - |
| 1777386019 | 20° C | 31% | 1017.1 hPa | 0 mm | - | 419 W/m² | - |
| 1777385422 | 20° C | 31% | 1017.1 hPa | 0 mm | - | 315 W/m² | - |
| 1777384824 | 20.56° C | 32% | 1017 hPa | 0 mm | - | 411 W/m² | - |
| 1777384228 | 20.56° C | 31% | 1017.2 hPa | 0 mm | - | 483 W/m² | - |
| 1777383631 | 21.11° C | 31% | 1017.3 hPa | 0 mm | - | 566 W/m² | - |
| 1777383017 | 20° C | 32% | 1017.4 hPa | 0 mm | - | 564 W/m² | - |
| 1777382419 | 20.56° C | 32% | 1017.5 hPa | 0 mm | - | 616 W/m² | - |
| 1777381822 | 20.56° C | 33% | 1017.5 hPa | 0 mm | - | 465 W/m² | - |
| 1777381226 | 20° C | 33% | 1017.6 hPa | 0 mm | - | 564 W/m² | - |
| 1777380628 | 20° C | 32% | 1017.7 hPa | 0 mm | - | 418 W/m² | - |
| 1777380030 | 20° C | 32% | 1017.6 hPa | 0 mm | - | 481 W/m² | - |
| 1777379417 | 20.56° C | 32% | 1017.7 hPa | 0 mm | - | 528 W/m² | - |
* Rain latest hour (hover to see other rain measurements)
** Current wind speed in m/s (hover to see current wind gust speed)